Location: Crab Orchard
(37.7292°N, 88.8042°W)
Time: 08:29:30
(UTC+00:00)

Cosmos 2263 Rocket - Pass Details

Date: 08 December 2019
Orbit: 824 x 848 km, 71.0° (Epoch: 17 January)

Event Time Altitude Azimuth Distance (km) Brightness Sun altitude
Rises 12:15:14 0° 230° (SW) 3,361 5.0 -8.4°
Reaches altitude 10° 12:17:58 10° 241° (WSW) 2,428 4.2 -7.9°
Maximum altitude 12:22:46 29° 301° (WNW) 1,468 2.9 -7.1°
Drops below altitude 10° 12:27:35 10° 1° (N) 2,431 4.4 -6.2°
Sets 12:30:20 0° 13° (NNE) 3,367 5.2 -5.7°
